Home > Time Zones > World Clock > Weather > Macau > Macau > Past weeks

Flag for Macau Weather past 2 weeks in Macau, Macau

Now
84 °F

Passing clouds.


Feels Like: 94 °F
Forecast: 80 / 87 °F
Wind: 13 mph from Southeast

Location: Taipa

Current Time: Aug 1, 2015 at 6:49:02 PM

Latest Report: Aug 1, 2015 at 6:00 PM


Visibility: N/A

Pressure: 29.80 "Hg

Humidity: 79%

Dew point: 77 °F

Location of MacauLocation

Historic Weather in Macau — Graph

°F

Macau temperature yesterday

Maximum temperature yesterday: 86 °F (at 12:00 PM)
Minimum temperature yesterday: 77 °F (at 3:30 AM)
Average temperature yesterday: 83 °F

Past Weeks' High & Low Weather Summary

 TemperatureHumidityPressure
High91 °F (Jul 19, 1:00 PM)94% (Jul 18, 1:00 AM)29.92 "Hg (Jul 18, 1:00 AM)
Low77 °F (Jul 21, 5:30 AM)63% (Jul 19, 1:30 PM)29.50 "Hg (Jul 17, 5:00 PM)
Average83 °F82%29.73 "Hg
* Reported Jul 17 5:00 PM — Aug 1 5:30 PM, Macau, Weather by CustomWeather, © 2015

Note: Actual official high and low records may vary slightly from our data, if they occured in-between our weather recording intervals... More about our weather records

Advertising

Macau weather history for previous 24 hours

 ConditionsComfort  
Time TempWeatherWind HumidityBarometerVisibility
5:30 PM
Sat, Aug 1
86 °FPassing clouds.12 mph75%29.80 "HgN/A
5:00 PM86 °FPassing clouds.12 mph75%29.80 "HgN/A
4:30 PM86 °FPassing clouds.8 mph75%29.83 "HgN/A
4:00 PM86 °FPassing clouds.9 mph75%29.83 "HgN/A
3:30 PM86 °FPassing clouds.10 mph79%29.83 "HgN/A
3:00 PM86 °FPassing clouds.9 mph75%29.83 "HgN/A
2:30 PM86 °FPassing clouds.10 mph70%29.83 "HgN/A
2:00 PM86 °FPassing clouds.7 mph75%29.86 "HgN/A
1:30 PM86 °FPassing clouds.8 mph75%29.86 "HgN/A
1:00 PM86 °FPassing clouds.8 mph75%29.86 "HgN/A
12:30 PM86 °FPassing clouds.7 mph75%29.86 "HgN/A
12:00 PM86 °FPassing clouds.6 mph75%29.86 "HgN/A
11:00 AM86 °FPassing clouds.6 mph75%29.89 "HgN/A
10:30 AM86 °FPassing clouds.6 mph75%29.89 "HgN/A
10:00 AM86 °FPassing clouds.6 mph75%29.89 "HgN/A
9:30 AM84 °FPassing clouds.6 mph79%29.86 "HgN/A
9:00 AM84 °FPassing clouds.5 mph79%29.86 "HgN/A
8:30 AM84 °FPassing clouds.5 mph79%29.86 "HgN/A
8:00 AM84 °FPassing clouds.5 mph79%29.86 "HgN/A
7:30 AM82 °FPassing clouds.3 mph79%29.86 "HgN/A
7:00 AM82 °FPassing clouds.5 mph84%29.86 "HgN/A
6:30 AM82 °FPassing clouds.3 mph79%29.83 "HgN/A
6:00 AM81 °FPassing clouds.3 mph84%29.83 "HgN/A
5:30 AM82 °FPassing clouds.3 mph79%29.83 "HgN/A
5:00 AM82 °FPassing clouds.3 mph79%29.83 "HgN/A
4:30 AM82 °FPassing clouds.3 mph79%29.83 "HgN/A
4:00 AM82 °FPassing clouds.5 mph79%29.83 "HgN/A
3:30 AM82 °FPassing clouds.5 mph79%29.83 "HgN/A
3:00 AM82 °FPassing clouds.5 mph79%29.83 "HgN/A
2:30 AM82 °FPassing clouds.5 mph79%29.83 "HgN/A
2:00 AM82 °FPassing clouds.6 mph79%29.83 "HgN/A
1:30 AM82 °FPassing clouds.6 mph79%29.83 "HgN/A
1:00 AM82 °FPassing clouds.8 mph79%29.83 "HgN/A
12:30 AM82 °FPassing clouds.7 mph79%29.83 "HgN/A
12:00 AM82 °FPassing clouds.8 mph74%29.86 "HgN/A
11:30 PM
Fri, Jul 31
82 °FPassing clouds.9 mph79%29.86 "HgN/A
11:00 PM82 °FPassing clouds.9 mph79%29.86 "HgN/A
10:30 PM82 °FPassing clouds.9 mph79%29.86 "HgN/A
10:00 PM82 °FPassing clouds.10 mph74%29.83 "HgN/A
9:30 PM82 °FPassing clouds.10 mph79%29.83 "HgN/A
9:00 PM82 °FPassing clouds.9 mph79%29.83 "HgN/A
8:30 PM82 °FPassing clouds.9 mph79%29.83 "HgN/A
8:00 PM82 °FPassing clouds.9 mph79%29.83 "HgN/A
7:30 PM82 °FPassing clouds.9 mph79%29.83 "HgN/A
7:00 PM84 °FPassing clouds.8 mph79%29.80 "HgN/A
6:30 PM84 °FScattered clouds.9 mph79%29.80 "HgN/A
6:00 PM84 °FScattered clouds.8 mph74%29.80 "HgN/A
Weather by CustomWeather, © 2015

See weather overviewHow to use our weather pages